Hourly Data Report for October 23, 2015

All times are specified in Local Standard Time (LST). Add 1 hour to adjust for Daylight Saving Time where and when it is observed.

CORAL HARBOUR A
NUNAVUT

64°11'36.000" N
83°21'34.000" W
62.20 m
2301002
71915
YZS

Download Data

Hourly Data (October 2015)
Hourly Data Report for October 23, 2015
Temp Definition
°C
Dew Point Temp Definition
°C
Rel Hum Definition
%
Wind Dir Definition
10's deg

Wind Spd Definition
km/h
Visibility Definition
km
Stn Press Definition
kPa
Hmdx Definition


Wind Chill Definition


Weather Definition


TIME
00:00 Legend Double Dagger -7.3 -8.7 90 9 16 9.7 100.82   -14 Snow
01:00 Legend Double Dagger -5.3 -6.1 94 10 11 3.2 100.71   -10 Snow
02:00 Legend Double Dagger -2.6 -3.0 97 19 17 3.2 100.60   -8 Snow
03:00 Legend Double Dagger -2.1 -2.7 96 20 26 3.2 100.51   -9 Snow
04:00
05:00 Legend Double Dagger -2.0 -2.4 97 18 26 3.2 100.28   -9 Snow
06:00 Legend Double Dagger -1.8 -2.4 96 18 29 4.0 100.17   -9 Snow
07:00 Legend Double Dagger -1.9 -2.5 96 18 32 1.6 100.05   -9 Snow
08:00 Legend Double Dagger -1.8 -2.4 96 18 32 1.6 99.90   -9 Snow
09:00 Legend Double Dagger -1.6 -2.0 97 18 28 1.0 99.78   -8 Snow,Blowing Snow
10:00 Legend Double Dagger -1.3 -1.7 97 19 35 1.2 99.66   -9 Snow,Blowing Snow
11:00 Legend Double Dagger -1.1 -1.5 97 19 34 1.2 99.57   -8 Snow,Blowing Snow
12:00 Legend Double Dagger -0.9 -1.3 97 19 31 1.6 99.49   -8 Snow,Snow Grains,Blowing Snow
13:00 Legend Double Dagger -0.9 -1.2 98 20 30 1.6 99.41   -8 Snow,Snow Grains,Fog,Blowing Snow
14:00 Legend Double Dagger -0.7 -1.0 98 20 28 1.2 99.32   -7 Fog,Blowing Snow
15:00 Legend Double Dagger -0.8 -1.1 98 20 26 1.2 99.25   -7 Fog,Blowing Snow
16:00 Legend Double Dagger -0.8 -1.1 98 20 27 0.4 99.18   -7 Snow,Freezing Fog
17:00 Legend Double Dagger -0.7 -1.0 98 20 22 0.2 99.07   -6 Freezing Drizzle,Freezing Fog
18:00 Legend Double Dagger -0.9 -1.2 98 20 28 0.2 98.98   -7 Freezing Drizzle,Freezing Fog
19:00 Legend Double Dagger -0.9 -1.2 98 20 27 0.2 98.91   -7 Freezing Drizzle,Freezing Fog
20:00 Legend Double Dagger -1.0 -1.3 98 19 22 0.2 98.80   -7 Freezing Drizzle,Freezing Fog
21:00 Legend Double Dagger -1.0 -1.3 98 18 20 0.2 98.68   -7 Freezing Drizzle,Freezing Fog
22:00 Legend Double Dagger -1.2 -1.5 98 17 19 0.4 98.55   -7 Snow,Freezing Fog
23:00 Legend Double Dagger -1.3 -1.6 98 17 16 0.4 98.43   -6 Snow,Freezing Fog

Notes on Data Quality.

Legend

  • E = Estimated
  • M = Missing
  • NA = Not Available
  • ‡ = Partner data that is not subject to review by the National Climate Archives
Date modified: